Weather History for Marion Regional, IL

Change the Weather History Date:

Sunday, February 3, 2013

  Actual Average Record
Temperature  
Mean Temperature 32 °F -  
Max Temperature 35 °F 40 °F 60 °F (2003)
Min Temperature 28 °F 21 °F -11 °F (1985)
Degree Days  
Heating Degree Days 34    
Moisture  
Dew Point 26 °F    
Average Humidity 81    
Maximum Humidity 100    
Minimum Humidity 52    
Precipitation  
Precipitation 0.06 in - - ()
Sea Level Pressure  
Sea Level Pressure 30.11 in    
Wind  
Wind Speed 4 mph (NW)    
Max Wind Speed 21 mph    
Max Gust Speed 28 mph    
Visibility 10 miles    
Events Fog , Rain , Snow    
Averages and records for this station are not official NWS values.
T = Trace of Precipitation, MM = Missing Value Source: NWS Daily Summary

Daily Weather History Graph

Daily Weather History Graph

Search for Another Location

Airport:

Trip Planner

Search our weather history database for the weather conditions in past years. The results will help you decide how hot, cold, wet, or windy it might be!

Date:

Astronomy

Feb. 03, 2013 Rise Set
Actual Time 6:58 AM CST 5:22 PM CST
Civil Twilight 6:30 AM CST 5:49 PM CST
Nautical Twilight 5:59 AM CST 6:21 PM CST
Astronomical Twilight 5:28 AM CST 6:51 PM CST
Moon 12:25 AM CST (2/3) 11:00 AM CST (2/3)
Length of Visible Light 11h 19m
Length of Day
10h 24m
Waning Gibbous, 48% of the Moon is Illuminated
Feb 3
Waning Gibbous
Feb 10
New
Feb 17
First Quarter
Feb 25
Full
Mar 4
Last Quarter

Hourly Weather History & Observations

Time (CST) Temp. Windchill Dew Point Humidity Pressure Visibility Wind Dir Wind Speed Gust Speed Precip Events Conditions
12:15 AM 33.8 °F - 30.2 °F 87% 30.10 in 5.0 mi Calm Calm - N/A Snow Light Snow
12:35 AM 32.0 °F 28.7 °F 32.0 °F 100% 30.09 in 0.8 mi NE 3.5 mph - N/A Snow Snow
12:55 AM 32.0 °F - 32.0 °F 100% 30.08 in 2.5 mi Calm Calm - 0.02 in Snow Light Snow
1:15 AM 32.0 °F - 32.0 °F 100% 30.07 in 2.0 mi Calm Calm - N/A Snow Light Snow
1:35 AM 32.0 °F - 32.0 °F 100% 30.07 in 1.2 mi Calm Calm - 0.01 in Snow Snow
1:55 AM 32.0 °F - 32.0 °F 100% 30.05 in 1.2 mi Calm Calm - 0.03 in Snow Light Snow
2:15 AM 32.0 °F 25.6 °F 32.0 °F 100% 30.06 in 5.0 mi NNW 6.9 mph - 0.01 in Rain Light Rain
2:35 AM 32.0 °F - 32.0 °F 100% 30.05 in 5.0 mi Calm Calm - 0.01 in   Overcast
2:55 AM 32.0 °F - 32.0 °F 100% 30.04 in 4.0 mi Calm Calm - 0.01 in   Overcast
3:15 AM 32.0 °F - 32.0 °F 100% 30.04 in 0.5 mi Calm Calm - N/A Fog Fog
3:35 AM 32.0 °F - 32.0 °F 100% 30.03 in 3.0 mi Calm Calm - N/A   Mist
3:55 AM 32.0 °F - 32.0 °F 100% 30.02 in 2.5 mi Calm Calm - N/A   Mostly Cloudy
4:15 AM 32.0 °F - 32.0 °F 100% 30.03 in 1.0 mi Calm Calm - N/A   Overcast
4:35 AM 32.0 °F - 32.0 °F 100% 30.03 in 0.2 mi Calm Calm - N/A Fog Light Freezing Fog
4:55 AM 30.2 °F - 30.2 °F 100% 30.02 in 0.2 mi Calm Calm - N/A Fog Light Freezing Fog
5:15 AM 28.4 °F - 28.4 °F 100% 30.03 in 0.5 mi Calm Calm - N/A Fog Light Freezing Fog
5:35 AM 28.4 °F 24.6 °F 28.4 °F 100% 30.03 in 2.5 mi WSW 3.5 mph - N/A   Scattered Clouds
6:55 AM 32.0 °F 23.0 °F 32.0 °F 100% 30.06 in 20.0 mi WNW 11.5 mph - N/A   Clear
7:55 AM 33.8 °F 26.4 °F 30.2 °F 87% 30.08 in 20.0 mi WNW 9.2 mph - N/A   Mostly Cloudy
8:55 AM 35.6 °F 27.5 °F 30.2 °F 81% 30.11 in 20.0 mi WNW 11.5 mph - N/A   Overcast
9:55 AM 35.6 °F 27.5 °F 28.4 °F 75% 30.13 in 20.0 mi WNW 11.5 mph - N/A   Overcast
10:55 AM 35.6 °F 24.5 °F 26.6 °F 70% 30.17 in 20.0 mi WNW 20.7 mph 27.6 mph N/A   Overcast
11:55 AM 35.6 °F 25.2 °F 24.8 °F 65% 30.18 in 20.0 mi WNW 18.4 mph 23.0 mph N/A   Overcast
12:52 PM 35.6 °F 25.5 °F 24.8 °F 65% 30.19 in 20.0 mi WNW 17.3 mph 25.3 mph N/A   Overcast
1:57 PM 35.6 °F 25.9 °F 21.2 °F 56% 30.19 in 20.0 mi NW 16.1 mph - N/A   Scattered Clouds
2:53 PM 35.6 °F 26.2 °F 21.2 °F 56% 30.19 in 20.0 mi NNW 15.0 mph - N/A   Scattered Clouds
3:53 PM 35.6 °F 27.5 °F 19.4 °F 52% 30.19 in 20.0 mi North 11.5 mph - N/A   Scattered Clouds
4:52 PM 35.6 °F 29.2 °F 19.4 °F 52% 30.18 in 20.0 mi North 8.1 mph - N/A   Scattered Clouds
5:56 PM 32.0 °F - 21.2 °F 64% 30.18 in 20.0 mi Calm Calm - N/A   Scattered Clouds
6:55 PM 30.2 °F - 23.0 °F 75% 30.19 in 10.0 mi Calm Calm - N/A   Clear
7:15 PM 30.2 °F - 23.0 °F 75% 30.19 in 10.0 mi Calm Calm - N/A   Clear
7:35 PM 30.2 °F - 23.0 °F 75% 30.18 in 10.0 mi Calm Calm - N/A   Clear
7:55 PM 30.2 °F - 23.0 °F 75% 30.18 in 10.0 mi Calm Calm - N/A   Clear
8:15 PM 28.4 °F - 21.2 °F 74% 30.17 in 10.0 mi Calm Calm - N/A   Clear
8:35 PM 28.4 °F - 23.0 °F 80% 30.17 in 10.0 mi Calm Calm - N/A   Clear
8:55 PM 28.4 °F 21.2 °F 21.2 °F 74% 30.15 in 10.0 mi SE 6.9 mph - N/A   Clear
9:15 PM 30.2 °F 24.3 °F 21.2 °F 69% 30.14 in 10.0 mi SE 5.8 mph - N/A   Clear
9:35 PM 30.2 °F 24.3 °F 21.2 °F 69% 30.13 in 10.0 mi SE 5.8 mph - N/A   Clear
9:55 PM 30.2 °F 23.4 °F 21.2 °F 69% 30.12 in 10.0 mi ESE 6.9 mph - N/A   Clear
10:15 PM 30.2 °F 25.4 °F 19.4 °F 64% 30.13 in 10.0 mi SSE 4.6 mph - N/A   Clear
10:35 PM 30.2 °F 25.4 °F 19.4 °F 64% 30.12 in 10.0 mi SE 4.6 mph - N/A   Clear
10:55 PM 28.4 °F 24.6 °F 19.4 °F 69% 30.12 in 10.0 mi ESE 3.5 mph - N/A   Clear
11:15 PM 28.4 °F 23.3 °F 19.4 °F 69% 30.10 in 10.0 mi ESE 4.6 mph - N/A   Clear
11:35 PM 28.4 °F 23.3 °F 21.2 °F 74% 30.10 in 10.0 mi SSE 4.6 mph - N/A   Clear
11:55 PM 28.4 °F 22.2 °F 21.2 °F 74% 30.10 in 10.0 mi SE 5.8 mph - N/A   Clear